Home > Weather > Ravensburg > Past weeks

Flag for Germany Past Weather in Ravensburg, Baden-Württemberg, Germany — Yesterday and Last 2 Weeks

Now
61 °F

Partly sunny.


Feels Like: 61 °F
Forecast: 53 / 64 °F
Wind: 7 mph from West

Location: Friedrichshafen Airport

Current Time: May 31, 2016 at 12:10:18 PM

Latest Report: May 31, 2016 at 11:20 AM


Visibility: N/A

Pressure: 29.89 "Hg

Humidity: 68%

Dew Point: 50 °F

Location of RavensburgLocation

Past Weather in Ravensburg — Graph

°F

Ravensburg Temperature Yesterday

Maximum temperature yesterday: 66 °F (at 2:20 PM)
Minimum temperature yesterday: 55 °F (at 3:20 AM)
Average temperature yesterday: 60 °F

High & Low Weather Summary for the Past Weeks

 TemperatureHumidityPressure
High81 °F (May 22, 2:20 PM)100% (May 16, 11:50 PM)30.18 "Hg (May 16, 11:50 PM)
Low43 °F (May 16, 11:50 PM)32% (May 22, 5:20 PM)29.68 "Hg (May 29, 1:50 PM)
Average57 °F78%29.95 "Hg
* Reported May 16 9:20 AM — May 31 9:20 AM, Ravensburg, Weather by CustomWeather, © 2016

Note: Actual official high and low records may vary slightly from our data, if they occured in-between our weather recording intervals... More about our weather records

Advertising

Ravensburg Weather History for the Previous 24 Hours

Scroll right to see more
 ConditionsComfort  
Time TempWeatherWind HumidityBarometerVisibility
9:20 AM
Tue, May 31
59 °FPartly sunny.No wind82%29.89 "HgN/A
8:50 AM57 °FPartly sunny.2 mph88%29.86 "HgN/A
8:20 AM57 °FPartly sunny.2 mph88%29.86 "HgN/A
7:50 AM55 °FPartly sunny.No wind94%29.86 "HgN/A
7:20 AM54 °FPartly sunny.1 mph94%29.86 "HgN/A
6:50 AM54 °FPartly sunny.1 mph94%29.86 "HgN/A
6:20 AM52 °FPassing clouds.2 mph94%29.86 "HgN/A
5:50 AM52 °FPassing clouds.2 mph94%29.86 "HgN/A
5:20 AM50 °FPassing clouds.3 mph100%29.86 "HgN/A
4:50 AM52 °FPassing clouds.2 mph88%29.83 "HgN/A
4:20 AM52 °FPassing clouds.1 mph94%29.83 "HgN/A
3:50 AM52 °FPassing clouds.No wind88%29.83 "HgN/A
3:20 AM55 °FPassing clouds.3 mph77%29.83 "HgN/A
2:50 AM54 °FPassing clouds.2 mph88%29.83 "HgN/A
2:20 AM54 °FPassing clouds.1 mph88%29.83 "HgN/A
1:50 AM54 °FPartly cloudy.2 mph94%29.83 "HgN/A
1:20 AM54 °FPartly cloudy.No wind94%29.83 "HgN/A
12:50 AM55 °FPartly cloudy.No wind88%29.83 "HgN/A
12:20 AM55 °FPartly cloudy.1 mph88%29.83 "HgN/A
11:50 PM
Mon, May 30
55 °FPassing clouds.No wind82%29.83 "HgN/A
11:20 PM57 °FClear.2 mph77%29.83 "Hg10 mi
10:20 PM59 °FClear.8 mph72%29.83 "Hg10 mi
9:50 PM61 °FPassing clouds.7 mph68%29.83 "HgN/A
9:20 PM61 °FPassing clouds.6 mph68%29.83 "HgN/A
8:50 PM61 °FPassing clouds.8 mph68%29.80 "HgN/A
8:20 PM61 °FScattered clouds.12 mph68%29.80 "HgN/A
7:50 PM64 °FScattered clouds.10 mph60%29.80 "HgN/A
7:20 PM64 °FBroken clouds.15 mph60%29.80 "HgN/A
6:50 PM64 °FPartly sunny.13 mph60%29.77 "HgN/A
6:20 PM66 °FPartly sunny.16 mph60%29.77 "HgN/A
5:50 PM64 °FPartly sunny.15 mph64%29.77 "HgN/A
5:20 PM64 °FPartly sunny.15 mph60%29.77 "HgN/A
4:50 PM66 °FPartly sunny.15 mph60%29.77 "HgN/A
4:20 PM66 °FBroken clouds.15 mph60%29.77 "HgN/A
3:50 PM66 °FBroken clouds.14 mph64%29.74 "HgN/A
3:20 PM66 °FPartly sunny.10 mph64%29.74 "HgN/A
2:50 PM66 °FBroken clouds.10 mph60%29.74 "HgN/A
2:20 PM66 °FBroken clouds.8 mph64%29.74 "HgN/A
1:50 PM64 °FBroken clouds.9 mph68%29.74 "HgN/A
1:20 PM64 °FBroken clouds.9 mph68%29.74 "HgN/A
12:50 PM63 °FMore clouds than sun.9 mph73%29.77 "HgN/A
12:20 PM63 °FMostly cloudy.7 mph77%29.77 "HgN/A
Weather by CustomWeather, © 2016

See weather overviewHow to use our weather pages